DECAYED

COSMOS 2251 DEB, 34275 (Decayed)

Orbit data source: Space-Track

COSMOS 2251 DEB, 34275 was space debris in LEO originally from a launch on Wed, 16 Jun 1993 UTC launched from the Plesetsk Missile And Space Complex (PKMTR). The debris from Iridium 33, an American commercial communications satellite, has been tracked extensively since its accidental collision with the defunct Russian satellite Cosmos 2251 in 2009. This event, occurring at high speed in low Earth orbit (LEO), generated thousands of pieces of space debris, significantly increasing the risk of further collisions. The Iridium 33 debris cloud has impacted space traffic management and orbital debris mitigation strategies, making it a subject of ongoing study in space situational awareness.

Not visible in the next 10 days
Identifier
34275, 1993-036LV
Orbit
Decayed
Country
Flag of CISCIS
Related business
Manufacturer
Unknown
Mission
Decayed spacecraft
Bus & Motor
Unknown
Mass
Unknown
Launch date (UTC)
1993-06-16 (33 years ago)
Launch vehicle
Unknown
Launch site
Plesetsk Missile And Space Complex (PKMTR)
Object type
Payload
Rocket body
Debris
Shape & HBR
Unknown shape, 0.1 m
Radar Cross Section
Small (<0.1 m²)

Expand to show TLE details & history
Last TLE update: 7 months ago

TLE from 7 months ago
0 COSMOS 2251 DEB
1 34275U 93036LV  25149.12277729  .06738503  28637+0  15380-1 0  9995
2 34275  73.9674  37.3992 0020459 211.4064 148.5960 16.08601015859665
Epoch: 2025-05-29T02:56Z
TLE epoch observation values (Epoch: 2025-05-29T02:56:47.957Z)
Latitude
0.00002°
Longitude
106.30299°
Altitude
265.081 km
Speed
7.742 km/s
True Right ascension
02h 29m 35s
True Declination
0° 00' 00"
Sunlit
Object was in daylight at epoch
Visualization orbit readout
Latitude
Unknown
Longitude
Unknown
Altitude
Unknown
Speed
Unknown
Apparent Right ascension
Unknown
Apparent Declination
Unknown
Sunlit
N/A
Visualization observer readout
Local Sidereal Time
08:04:22
Azimuth
Unknown
Elevation
Unknown
Doppler factor
Unknown
Orbital elements
Apogee altitude
261.684 km
Perigee altitude
234.57 km
Semi-major axis
6,626.264 km
Eccentricity
0.00205
Inclination
73.9674°
RAAN
37.3992°
Arg. of periapsis
211.4064°
True anomaly
148.71789°
Mean anomaly
148.596°
Eccentric anomaly
148.65697°
Mean motion
4.02383 °/min
Orbital period
89.47 mins
BSTAR
0.01538
Loading maneuver chart data...
Computing Atmospheric mass density...
Loading historical data...
Loading historical data...
Loading historical data...
Loading historical data...
Loading historical data...
Loading historical data...
Loading historical data...

Documentation

Showing up to 5 results
|